THAICOM 6

Last updated on Sept. 29, 2020, 5:50 a.m. UTC

1 39500U 14002A   20272.75049486 -.00000142  00000-0  00000-0 0  9998
2 39500   0.0625 122.6270 0004502  51.0107 183.0500  1.00270888 24521
UTC
Height (km)
Latitude
Longitude
Inclination
Orbital Period
UTC large
Height (km)
Speed (km/s)
/
Latitude / Longitude
Inclination (degrees)
Orbital Period (minutes)
Azimuth
Elevation
Range (km)
Doppler Factor
iOS Compass Heading
iOS Angle

Next 30 passes for location: Hong Kong

Rise time Rise Azimuth (degrees) Set time Set Azimuth (degrees) Duration Max altitude (degrees)

No matching passes for this satellites